Theta_e
327 326 325 325 324 323 323 324 324 323 322 320 318 316 314 312 308 305 305 306 306 309 311 308 308 309 307 305 306 308 307 312 311 305 305 304 305 309 310 311 312 311 313 313 313 313 313 312 310 309 309 308 308 307 306 306 306 305 305 304 305 305 305 305 305 305 307 307 305 304 303 303 302 302
327 325 324 324 323 321 323 324 323 324 323 320 318 317 317 315 311 308 305 305 307 307 308 309 305 306 306 306 306 307 307 314 308 304 303 303 304 310 309 309 310 311 312 313 314 314 314 313 311 310 308 307 308 307 306 305 305 304 303 303 303 303 304 304 305 304 305 306 304 303 303 303 303 302
326 325 324 324 324 324 324 323 324 324 323 321 319 318 318 316 313 310 308 303 304 308 306 304 306 306 306 306 306 306 307 311 306 302 301 301 307 311 309 310 310 309 310 311 313 314 313 313 311 310 308 307 307 307 307 305 304 303 302 302 301 302 302 303 304 303 304 305 303 303 304 304 303 302
328 327 326 325 325 325 324 324 324 323 323 322 319 318 317 313 312 311 308 306 305 307 307 304 305 306 305 305 304 304 306 310 307 301 300 301 310 308 305 309 308 307 307 309 311 312 313 313 311 310 308 307 306 306 306 304 302 301 301 300 300 300 301 301 302 303 303 304 304 303 303 303 303 302
327 326 325 324 323 321 323 323 323 322 322 321 319 317 316 312 310 309 307 305 303 304 305 304 304 305 305 303 304 303 304 304 301 302 298 300 303 302 301 303 306 305 305 306 306 307 308 311 311 309 309 307 306 305 303 301 301 301 301 301 300 300 300 300 300 301 301 302 303 303 303 303 302 302
325 323 322 322 320 324 324 323 323 322 321 320 318 317 316 313 310 310 308 304 303 303 301 302 303 303 305 302 302 302 302 302 301 298 298 300 301 299 297 299 300 304 304 306 306 306 306 306 307 309 309 305 303 302 301 301 301 301 300 298 298 298 299 299 299 299 299 299 301 302 302 302 301 301
323 322 322 322 324 325 324 324 323 322 321 321 319 317 316 314 311 311 310 305 303 303 301 301 302 302 302 302 300 301 303 303 301 299 298 299 300 300 297 297 298 302 304 305 305 305 306 305 304 304 303 301 299 299 299 299 299 299 298 297 297 297 297 298 298 298 298 298 298 299 300 301 301 301
322 322 322 323 324 324 322 322 322 322 322 320 320 317 315 314 313 312 312 308 304 303 301 300 302 302 301 301 301 301 302 301 301 300 299 299 298 298 299 298 298 300 303 304 304 305 305 304 303 301 300 299 299 299 300 298 298 298 298 297 297 296 296 297 297 297 297 297 296 296 296 298 300 300
323 321 321 322 323 322 320 319 320 321 320 320 318 317 316 314 314 314 315 310 306 304 302 301 302 302 302 302 301 300 298 298 299 299 300 299 298 298 299 299 299 302 304 303 304 304 304 303 301 300 299 299 299 299 299 298 298 298 297 297 297 296 296 296 296 296 296 296 295 295 295 295 297 299
322 321 320 320 322 321 320 318 318 320 319 319 317 316 317 316 314 313 313 312 306 305 303 301 301 300 301 298 299 299 298 297 297 298 298 298 298 297 296 297 300 300 301 300 301 303 303 303 300 299 299 299 299 299 298 298 298 298 297 297 297 296 296 296 295 296 295 295 295 295 295 294 295 296
321 321 320 320 321 320 319 318 318 318 319 319 317 317 317 317 314 313 313 311 306 305 303 301 302 302 302 299 298 298 298 298 298 298 297 296 297 297 297 297 298 299 299 300 302 302 301 301 299 299 300 300 299 299 299 299 298 298 297 297 297 297 296 296 296 295 295 294 294 294 294 294 295 296
319 320 320 320 321 321 320 319 318 318 318 318 317 317 317 316 314 313 312 311 307 304 302 301 300 301 301 298 298 299 297 295 295 298 298 296 296 295 297 297 297 298 298 297 298 302 302 301 301 300 300 300 300 300 300 300 300 299 298 297 297 296 296 296 296 296 295 295 294 293 294 294 293 293
317 318 320 320 320 321 323 320 319 320 321 318 316 316 315 315 314 313 311 310 308 304 303 301 302 301 300 298 297 295 295 295 296 297 298 297 298 296 296 297 298 298 297 297 296 297 298 297 297 296 295 297 300 299 299 299 300 299 298 297 296 296 296 296 296 296 296 295 295 294 294 294 294 293
315 317 319 320 325 323 322 319 313 311 313 316 318 317 316 316 315 313 311 309 307 305 302 301 300 300 300 298 298 297 297 298 298 297 297 297 297 295 295 296 296 298 296 295 294 296 298 297 295 295 294 295 300 295 297 295 297 299 298 297 296 296 296 296 296 296 296 296 295 295 294 294 294 293
312 312 315 317 323 322 322 316 309 308 308 308 309 311 314 317 317 314 311 309 307 306 304 302 301 301 300 300 299 298 298 299 299 298 298 297 296 295 294 292 294 297 296 294 293 294 297 297 294 294 294 294 296 295 295 297 298 299 298 297 296 296 296 296 296 295 295 295 295 295 294 293 293 293
312 312 312 312 314 311 308 305 304 305 304 304 305 306 306 306 307 310 314 311 307 306 304 302 301 301 301 301 299 299 298 298 298 299 297 296 296 296 295 294 293 296 297 294 293 294 297 297 295 294 295 294 295 296 296 297 297 298 298 297 296 296 296 296 295 295 295 295 295 295 294 292 292 292
311 310 310 310 309 310 315 311 303 302 300 300 299 300 301 302 303 302 302 305 312 309 307 305 302 302 302 300 300 301 300 300 299 298 297 297 297 297 296 296 294 295 297 295 293 292 294 296 296 294 295 295 295 296 298 298 297 297 297 296 296 295 295 295 295 295 295 294 294 294 293 292 292 292
311 310 310 309 308 308 308 303 303 302 301 303 304 303 302 303 305 303 301 301 302 307 309 307 305 305 304 303 302 304 302 301 300 299 298 299 298 297 297 298 298 298 298 295 294 291 293 296 295 294 295 295 295 296 297 298 297 297 297 296 295 295 295 295 295 295 294 294 294 294 293 292 291 292
312 310 310 309 309 308 305 304 303 303 302 303 304 301 300 298 298 298 299 302 306 309 309 308 308 307 305 305 304 304 304 304 303 303 302 301 301 301 300 299 297 297 298 297 295 293 292 295 294 295 295 295 295 295 297 298 298 297 297 296 295 295 295 295 295 294 294 294 294 294 293 292 291 291
312 311 310 309 308 309 306 306 300 303 304 304 302 300 297 297 296 296 300 294 294 301 306 308 308 307 307 303 304 305 305 305 304 303 303 302 299 299 299 297 295 296 298 298 296 293 293 294 295 295 295 295 294 295 296 298 298 298 297 296 295 294 294 294 294 294 294 294 294 293 293 292 291 292
311 312 310 309 308 308 307 303 296 298 305 304 302 300 297 297 297 298 297 296 293 293 296 298 301 300 300 299 299 299 300 303 303 302 301 299 299 297 295 296 294 296 297 297 297 295 292 293 295 294 292 294 293 293 294 294 298 298 297 296 295 294 294 294 294 294 294 294 294 294 293 292 292 293
311 312 315 313 308 307 307 299 295 296 304 304 302 299 298 297 296 296 297 298 297 295 294 294 295 298 298 298 297 298 299 299 303 303 301 301 299 298 296 295 294 293 295 297 297 295 291 292 293 291 290 292 291 292 290 291 293 297 297 296 295 294 294 294 294 294 294 294 294 294 293 293 293 289
310 311 315 313 309 309 306 297 296 296 304 304 301 300 299 298 296 296 295 297 296 296 297 297 299 298 300 301 301 302 298 299 305 304 303 300 300 298 296 295 292 294 295 297 296 296 290 293 292 292 290 289 289 290 291 291 290 290 293 292 292 295 294 294 294 294 294 294 294 294 293 293 292 288
306 310 310 309 300 300 299 296 295 295 299 304 302 300 300 299 297 296 295 296 296 297 297 296 296 296 296 297 298 298 298 302 303 300 301 301 301 299 297 296 295 294 293 296 296 295 290 292 293 287 290 288 289 290 289 289 289 290 289 289 288 292 295 294 294 294 294 293 294 294 293 293 292 288
308 308 309 308 301 297 297 296 295 295 296 300 303 301 301 301 300 296 296 298 303 296 296 296 295 295 295 295 295 297 298 299 298 298 298 299 300 300 297 295 295 294 293 294 297 296 292 292 292 289 289 285 285 290 289 287 289 289 290 289 289 289 289 290 291 290 292 293 293 293 293 293 293 290
308 308 308 307 302 296 296 295 295 295 296 297 304 301 297 295 293 298 298 298 297 297 297 295 295 294 294 294 294 295 297 297 297 296 296 298 297 299 300 299 296 293 296 295 295 297 292 291 292 291 288 289 290 286 289 290 288 290 289 289 289 289 289 289 289 289 289 288 288 290 291 293 293 293
308 306 307 307 302 295 295 294 294 295 295 298 302 296 294 293 293 296 297 296 296 295 294 296 295 293 292 293 293 293 294 294 294 294 293 294 296 297 297 297 298 298 295 296 299 298 296 291 291 293 289 287 289 287 286 289 290 289 289 289 289 289 289 287 288 290 290 289 289 291 292 292 292 293
308 306 305 304 297 295 294 294 294 294 296 299 294 293 294 293 294 298 296 294 295 294 293 294 293 294 292 291 292 293 295 293 292 294 292 292 293 294 295 295 296 296 296 298 298 295 295 293 293 290 292 291 289 288 288 287 288 287 289 289 290 290 289 289 289 291 291 291 290 289 288 288 289 289
308 302 299 298 295 294 294 293 293 293 295 293 291 292 293 298 296 296 295 295 294 293 293 294 294 294 293 294 293 293 292 291 291 292 295 295 294 294 295 295 295 295 298 299 297 295 295 295 294 292 291 289 290 288 288 287 288 289 289 288 290 289 290 291 290 290 291 289 289 288 288 288 287 290
301 298 296 295 294 293 294 295 296 296 296 292 292 292 295 298 296 295 295 294 294 293 293 293 293 294 292 291 293 291 291 292 292 292 294 293 294 294 295 296 296 298 297 296 296 294 294 294 294 293 292 290 291 291 290 290 289 289 289 289 290 290 288 288 289 290 290 290 290 290 289 287 288 289
302 298 298 296 294 295 294 295 295 296 294 292 293 293 298 297 296 295 295 295 294 293 292 292 292 292 293 292 293 291 293 294 292 293 293 293 292 295 293 294 294 295 296 297 296 294 295 295 294 294 292 290 290 291 291 291 290 288 288 288 289 289 287 286 287 288 288 289 288 287 287 286 286 290
302 298 294 294 296 295 296 295 294 293 294 294 292 294 296 295 295 297 299 298 294 294 293 293 292 291 292 292 293 292 292 293 294 293 293 293 292 292 293 291 291 293 295 295 297 297 296 295 295 294 295 293 293 290 288 290 290 289 289 289 290 289 289 289 289 288 287 286 286 285 285 285 286 287
298 296 296 295 295 296 295 293 294 293 292 292 294 294 294 295 295 294 293 294 293 293 293 292 292 292 292 292 291 292 293 294 294 293 293 293 294 292 294 292 292 292 294 294 295 295 294 294 294 293 293 293 295 293 291 288 290 289 290 291 289 289 288 287 287 286 285 285 285 284 284 286 286 286
299 298 297 297 296 296 296 296 293 294 294 294 294 293 292 293 293 293 293 293 293 292 293 293 292 292 292 292 293 293 293 294 293 294 293 294 294 293 293 292 291 294 294 295 295 295 295 294 292 291 292 292 293 292 293 292 291 290 290 289 290 290 291 289 287 286 287 285 285 284 283 283 285 283
298 295 295 295 296 296 297 296 295 293 293 291 292 293 293 293 293 292 293 294 292 291 291 291 292 291 291 292 292 293 293 294 294 294 293 293 294 294 294 293 292 293 293 294 293 293 293 293 292 291 291 292 292 293 293 294 291 291 290 289 290 291 292 290 287 286 286 284 284 284 284 282 283 282
295 297 296 295 297 296 296 295 293 294 294 293 293 292 292 292 292 292 293 294 294 292 292 289 288 289 290 291 290 292 292 290 293 294 293 293 293 293 293 293 293 293 293 294 294 293 293 293 291 292 289 287 286 285 289 294 295 293 292 289 289 289 290 289 286 285 286 284 283 283 281 283 283 283
294 296 298 298 297 296 295 295 294 294 295 294 294 293 293 292 293 294 294 292 294 291 292 291 289 289 288 288 288 288 288 288 290 291 291 292 293 292 292 290 290 292 292 294 294 293 293 291 291 291 290 285 285 287 288 283 289 293 294 293 290 290 290 285 285 283 283 284 283 282 283 282 280 279
296 298 299 298 298 297 297 296 294 293 295 294 294 294 294 294 294 294 294 293 292 290 290 291 289 288 289 288 288 287 287 289 290 289 289 291 290 289 290 290 290 290 292 293 292 292 292 291 291 291 290 287 286 286 287 285 286 291 294 294 291 290 287 286 283 284 284 283 284 283 282 281 280 279
300 298 298 299 298 298 296 295 294 294 295 295 294 294 294 294 293 292 292 293 294 293 292 291 290 289 289 290 290 289 287 286 287 288 289 290 292 291 290 289 289 289 289 289 289 289 291 291 291 291 291 290 288 288 289 287 288 289 288 294 294 290 285 288 287 286 286 284 284 282 282 281 280 284
302 301 300 300 300 299 298 297 295 295 295 296 296 296 295 292 293 293 292 290 292 293 293 291 291 290 289 290 288 288 289 290 289 288 289 289 289 291 291 288 289 288 288 288 288 289 289 291 291 292 292 293 293 292 287 287 285 282 281 287 292 293 289 286 287 285 282 285 284 282 280 278 278 277
301 301 301 301 301 300 299 298 297 296 296 296 297 295 296 295 295 294 294 292 290 291 290 290 290 290 289 289 289 289 288 287 286 286 287 287 287 287 288 287 287 286 287 287 287 287 289 292 293 291 293 291 288 290 288 288 287 288 288 286 289 291 291 290 289 287 286 283 282 281 278 276 274 272
302 302 303 303 302 302 302 300 299 297 296 295 296 296 296 295 295 293 292 292 293 291 290 290 289 290 289 289 288 287 289 288 287 286 286 286 287 286 286 286 287 285 286 287 287 288 291 289 289 290 289 287 287 288 287 288 289 289 285 280 278 286 290 290 290 289 286 282 279 276 274 274 273 272
302 304 304 303 303 303 303 302 300 299 297 297 296 296 295 295 293 293 291 291 291 290 290 290 289 290 290 289 288 289 289 288 288 288 287 286 287 287 286 285 286 287 287 287 287 287 286 286 287 288 287 288 288 289 289 288 289 288 284 283 283 279 281 288 288 289 288 288 287 285 282 278 272 272
304 305 305 305 304 305 305 304 303 301 299 298 296 295 293 293 292 292 292 291 291 291 291 290 289 289 289 289 287 287 287 289 288 288 288 287 287 287 287 286 286 285 285 285 285 286 285 284 284 286 286 287 288 287 289 289 287 286 284 279 279 279 281 279 279 285 286 287 287 288 288 287 286 287
305 306 306 305 306 306 306 305 304 303 301 298 295 294 292 292 293 292 292 291 291 291 290 290 290 289 289 288 288 288 288 289 288 287 287 286 286 286 286 286 286 285 285 285 284 284 282 282 282 283 285 286 286 288 289 289 288 282 280 278 280 279 278 279 281 282 280 279 284 286 287 287 287 287
Wind_Speed
6 6 7 7 5 5 3 2 1 1 2 3 6 9 13 12 11 9 8 8 7 7 7 6 5 7 7 8 6 8 7 8 10 6 6 6 5 9 10 10 12 11 9 9 9 9 9 8 7 6 5 6 6 6 7 7 8 9 10 11 11 11 11 11 11 12 12 13 13 14 15 16 18 18
5 4 4 4 4 3 4 4 4 5 6 7 9 8 7 8 11 9 10 8 7 5 4 5 4 4 7 7 7 6 7 11 11 7 7 6 6 10 10 10 9 9 8 7 7 9 9 8 7 6 5 5 5 5 6 6 7 8 9 9 9 9 9 10 10 10 11 12 13 14 15 16 17 18
5 5 5 5 5 5 5 5 5 5 6 6 7 7 6 4 3 9 7 6 5 4 8 4 3 7 6 7 7 5 5 9 9 8 6 6 9 11 8 10 10 10 9 9 7 8 10 9 8 7 6 6 6 6 6 7 7 7 8 8 8 8 7 8 9 10 10 11 12 13 14 15 16 18
5 5 7 7 6 5 5 4 5 6 6 6 7 8 8 6 5 6 7 7 7 6 6 5 4 9 9 8 8 6 5 6 9 7 7 7 8 7 6 10 11 11 10 10 9 9 10 10 11 10 9 8 7 7 6 6 6 6 7 7 8 7 6 7 8 9 10 10 11 12 13 14 15 16
4 5 5 5 3 3 4 4 4 5 6 6 6 7 7 5 5 6 5 6 3 1 1 5 5 6 9 6 7 9 7 7 5 5 5 6 6 6 6 6 10 11 11 11 11 10 11 11 12 11 10 8 8 8 8 6 6 5 6 7 7 6 5 6 7 8 9 9 9 10 11 13 14 15
4 4 5 4 3 4 4 5 5 5 6 7 7 7 7 6 6 5 5 3 4 5 2 3 3 6 8 8 7 10 10 7 6 7 5 5 6 7 6 6 6 11 12 11 12 11 11 10 10 9 8 7 7 8 6 6 5 5 5 6 6 6 5 5 6 7 8 8 8 9 10 11 12 13
5 5 5 5 4 4 5 5 5 5 6 6 7 7 6 6 6 6 4 4 3 8 4 5 7 7 7 7 10 8 8 9 9 9 7 7 6 5 6 7 5 10 11 12 12 12 11 10 10 8 7 7 7 7 6 5 4 3 4 5 6 5 4 4 5 6 7 7 7 8 9 9 11 12
6 6 6 6 5 5 5 5 5 5 6 6 6 6 6 6 6 6 3 4 5 4 7 4 8 7 9 4 5 6 6 8 8 7 6 5 7 7 5 6 6 8 11 11 12 12 12 11 10 9 8 8 8 7 6 5 4 4 3 5 6 4 3 2 3 4 5 6 6 6 7 8 8 10
7 7 7 7 6 5 5 4 5 6 7 6 6 7 7 7 5 5 5 4 4 6 7 6 3 5 4 2 6 8 9 4 3 3 7 8 8 7 6 4 5 7 11 10 11 12 12 12 11 10 9 9 8 8 7 6 5 4 4 4 5 4 3 1 1 2 1 3 4 5 5 6 7 8
7 7 7 6 7 7 7 6 5 6 8 7 7 7 6 6 5 5 4 4 4 7 7 8 5 4 7 4 4 8 8 9 6 4 4 2 3 5 4 4 4 3 4 4 5 7 9 11 11 10 9 8 8 8 7 6 5 5 4 4 4 3 3 1 1 3 2 0 2 3 4 5 6 7
7 7 7 7 7 8 7 7 7 7 7 7 8 8 7 6 5 6 6 5 5 6 6 4 7 9 5 6 8 6 6 8 9 10 7 5 4 4 6 6 4 3 4 5 6 7 7 6 6 8 9 8 8 8 8 7 6 5 5 4 4 3 3 3 3 4 3 2 1 1 3 4 5 6
7 8 7 8 8 8 8 7 7 7 7 6 7 7 6 6 6 6 6 5 6 6 6 7 7 6 7 4 1 4 5 4 2 5 7 10 8 7 6 7 8 5 5 6 5 4 4 4 5 6 7 6 6 7 7 8 7 7 6 5 5 4 3 4 5 5 6 4 2 0 2 2 3 4
6 7 7 7 8 8 10 12 10 9 7 7 7 6 6 6 7 5 5 6 6 6 6 6 4 7 6 6 8 8 8 11 13 9 6 7 7 6 6 6 4 5 7 7 6 5 6 5 5 5 5 4 6 7 8 6 9 8 7 6 5 5 5 5 6 6 7 6 3 1 2 2 2 2
5 7 7 7 12 13 13 12 13 12 11 10 8 7 7 7 6 6 6 6 7 7 8 8 8 8 9 9 10 11 11 9 3 5 7 7 4 4 4 1 4 5 5 5 6 7 5 6 4 4 6 4 6 5 5 6 6 8 9 7 6 6 6 6 6 6 6 7 4 2 2 2 3 3
6 4 6 6 9 9 8 7 12 13 13 12 12 11 11 10 9 7 8 8 7 8 9 8 9 11 11 10 9 10 9 8 10 10 10 7 5 7 7 7 2 3 8 6 6 7 4 6 7 6 6 6 6 6 7 8 11 11 10 8 7 7 7 7 8 7 7 7 6 3 3 2 3 4
6 6 6 4 4 5 6 6 5 5 8 11 13 13 13 14 14 14 12 10 8 8 8 8 11 10 11 10 8 7 7 9 7 6 8 8 9 8 9 6 7 5 10 7 6 8 3 5 6 6 7 7 7 8 9 11 12 12 11 10 9 8 8 8 8 8 8 8 7 4 4 3 3 4
7 6 7 5 4 4 9 7 6 6 5 4 6 7 5 4 10 14 16 15 14 12 11 12 11 12 10 9 9 10 11 9 10 7 8 8 7 9 9 9 7 3 10 8 6 8 5 6 7 8 7 7 7 7 10 13 13 13 12 11 11 10 9 9 8 9 9 8 6 4 3 3 2 4
7 7 8 7 6 4 4 5 6 6 6 6 5 4 3 3 3 2 7 12 11 10 11 12 13 10 7 11 11 11 9 11 11 10 11 10 7 8 12 10 8 4 9 12 8 5 5 6 6 8 8 6 7 8 10 14 14 14 13 12 12 11 10 9 9 9 10 9 6 4 4 3 2 3
8 8 8 8 8 7 6 6 7 7 7 6 5 4 3 3 2 2 2 1 4 7 6 8 10 10 10 9 9 11 11 14 12 14 15 15 14 8 2 3 2 3 8 8 7 9 5 4 5 8 7 5 7 6 9 14 15 15 14 13 13 12 11 10 10 10 10 10 8 6 4 4 3 1
7 8 8 8 7 7 7 8 12 10 8 7 6 5 3 2 1 1 1 1 3 3 5 6 7 7 11 12 11 12 12 10 7 4 3 3 3 5 6 7 3 5 7 7 9 4 4 4 8 7 2 4 6 5 6 11 16 15 15 14 14 13 11 11 11 11 10 10 10 8 6 5 3 3
7 7 7 8 8 7 7 10 13 12 11 7 7 7 5 3 2 1 1 3 5 4 1 4 8 9 12 13 14 16 18 13 9 7 7 7 7 7 6 5 4 7 6 7 8 6 4 4 7 5 0 3 3 4 6 5 11 15 15 14 14 13 12 12 12 11 11 11 10 10 8 6 4 3
6 8 12 9 8 8 8 11 14 13 11 8 8 7 7 5 4 2 0 1 2 4 6 7 5 3 11 14 14 16 16 14 12 11 11 10 9 9 8 8 7 3 5 8 8 5 5 4 4 3 0 1 1 3 3 5 5 9 10 11 11 12 12 12 11 11 11 11 11 11 10 8 6 2
6 6 10 14 11 10 10 14 15 15 11 7 8 8 7 7 6 6 4 4 3 2 3 2 3 4 4 5 7 9 15 15 14 11 10 8 10 9 8 6 3 2 3 6 6 9 3 6 5 5 2 1 3 1 3 4 4 4 5 6 6 9 10 11 11 11 12 12 12 12 11 10 6 3
5 6 6 10 15 15 14 15 16 15 13 8 6 6 7 7 7 4 4 3 3 3 3 2 2 3 2 3 3 4 5 6 5 5 6 9 9 9 8 8 8 7 5 4 8 8 2 4 6 2 5 4 2 1 1 2 4 5 4 4 4 8 8 9 10 14 14 12 13 13 12 11 8 4
8 7 7 7 11 15 15 15 15 14 14 10 8 8 8 8 6 8 4 3 4 4 4 3 3 3 3 3 3 4 5 6 4 4 4 6 7 9 8 8 8 6 4 4 10 5 4 4 5 3 0 2 2 3 1 1 3 5 5 6 7 6 4 6 6 8 9 12 13 14 14 13 11 8
7 8 8 8 11 15 14 14 14 15 13 13 8 9 9 8 13 10 5 5 5 4 4 4 3 3 3 3 4 4 4 3 4 4 4 5 4 6 8 10 9 6 6 4 11 7 5 2 7 6 3 3 0 2 3 1 2 4 3 5 6 6 5 6 6 7 7 6 6 8 11 13 10 12
9 7 8 8 13 15 14 14 14 13 13 11 8 11 11 12 13 9 6 5 6 6 4 5 6 4 3 3 3 3 4 2 2 4 4 4 4 4 4 4 6 8 6 5 8 7 7 4 4 9 6 3 6 0 2 3 2 1 0 5 6 6 5 5 6 7 7 6 7 7 8 8 9 10
9 8 8 9 14 15 14 14 14 13 12 9 11 14 14 14 12 7 6 6 6 5 5 6 5 6 5 4 4 5 5 5 4 3 3 3 3 4 3 3 3 3 4 6 7 6 7 5 6 4 8 8 7 6 4 3 1 3 4 2 4 5 5 6 7 6 6 5 5 4 3 5 5 5
9 11 14 13 15 15 14 15 13 11 11 11 11 12 14 12 7 7 7 7 6 6 7 7 7 6 7 7 5 5 3 2 2 1 0 0 1 1 2 2 1 2 3 4 6 6 6 7 8 5 4 4 7 5 5 5 4 5 5 3 2 3 6 7 7 6 6 4 6 5 7 7 3 4
15 15 15 15 14 13 11 9 7 7 7 9 10 12 12 8 8 7 8 7 8 8 7 7 8 8 6 5 5 2 3 4 6 5 5 4 2 2 3 3 1 0 0 2 5 5 5 7 7 7 5 4 6 6 6 5 2 4 3 5 6 3 2 4 6 6 5 6 6 6 6 4 5 5
9 10 10 10 11 10 12 10 8 7 6 4 4 6 7 7 8 8 8 10 9 8 7 7 7 7 5 2 3 3 6 6 5 5 6 7 6 5 4 5 3 2 1 0 0 3 6 6 6 7 6 4 2 5 6 6 7 4 5 6 4 4 3 1 3 5 6 6 3 2 2 3 3 2
7 7 6 8 7 7 6 5 3 3 5 5 5 6 6 7 6 8 7 7 7 7 7 7 5 2 2 4 6 4 5 6 6 4 5 6 6 6 5 3 4 4 4 2 0 0 2 6 7 6 7 8 7 4 2 5 7 7 6 4 6 5 2 4 5 5 3 3 1 4 4 3 4 4
7 7 7 6 7 8 8 7 6 6 6 5 4 5 5 6 6 6 7 8 7 6 6 6 6 7 6 6 4 6 5 6 6 4 5 4 6 4 5 7 6 5 6 6 4 3 2 2 0 3 4 5 6 7 6 4 7 6 7 6 4 5 4 5 6 3 3 3 4 3 4 4 3 4
9 8 9 9 9 9 8 8 8 7 7 6 6 6 5 6 6 7 7 7 7 7 7 7 7 7 7 7 6 6 7 6 6 5 7 5 5 6 6 6 6 6 6 6 6 6 5 3 1 2 1 0 1 4 7 7 7 6 7 6 6 7 7 4 4 4 6 5 6 5 3 4 3 2
11 9 9 9 9 10 9 9 9 8 8 8 7 7 7 6 7 7 7 7 6 7 7 7 7 7 7 7 7 7 7 7 6 6 5 5 6 7 7 7 6 6 7 6 6 5 4 5 3 1 0 0 2 4 5 7 6 7 4 5 6 7 7 4 4 4 5 3 3 4 5 3 5 4
9 11 11 10 10 10 10 10 8 8 8 8 8 7 7 8 7 8 8 6 7 7 7 7 6 6 7 7 7 7 7 7 6 6 6 6 7 7 6 7 7 7 6 7 7 6 6 6 6 6 6 3 3 4 6 8 9 7 7 6 5 6 7 4 3 3 6 5 5 5 4 7 6 4
11 10 11 12 11 11 11 10 9 9 8 8 8 8 9 9 9 8 7 6 7 7 8 8 7 7 7 7 7 6 7 6 6 6 7 7 7 7 7 7 7 6 7 7 6 6 6 6 6 7 7 5 6 8 9 2 6 7 7 8 6 5 6 3 3 4 6 6 5 6 6 5 5 5
12 12 11 11 11 11 10 9 9 8 8 8 8 8 8 8 7 7 5 7 7 7 7 7 7 7 7 7 7 7 6 7 6 6 7 7 6 6 7 8 7 7 7 7 5 6 6 6 7 7 8 8 8 8 8 4 1 6 13 10 8 7 4 4 4 6 6 3 6 5 3 3 5 5
13 13 12 11 10 10 10 9 10 10 9 8 8 9 8 7 6 6 6 8 7 8 7 7 7 7 7 7 7 8 7 7 7 7 7 7 7 7 7 7 7 6 5 6 4 4 4 6 7 7 8 9 9 8 8 7 8 6 3 12 9 5 4 7 7 5 5 4 4 1 2 1 0 0
8 10 11 12 11 10 10 9 9 9 9 9 9 8 8 8 7 7 7 7 7 7 7 8 7 7 7 7 7 7 7 8 9 8 8 8 8 8 8 7 7 7 6 7 6 6 6 7 8 8 9 10 11 7 5 4 3 3 3 5 10 10 7 6 6 5 3 4 3 4 4 1 2 2
9 9 9 9 10 10 11 10 10 9 9 9 9 8 8 8 8 7 8 7 6 7 7 7 7 7 8 7 7 8 7 7 6 7 7 7 7 7 8 7 7 5 7 7 7 6 8 9 13 15 10 2 2 5 2 1 4 7 7 4 2 4 7 8 6 5 5 4 5 5 5 4 3 2
11 11 11 11 11 11 10 11 10 10 9 9 9 9 9 8 8 9 9 8 7 6 7 7 7 7 7 7 7 7 7 7 7 7 6 7 7 6 6 6 7 5 6 7 8 9 9 5 2 1 3 4 4 4 6 8 9 9 6 3 2 2 3 6 5 5 6 7 5 2 1 1 1 2
13 12 12 11 10 9 10 10 10 10 9 9 9 9 8 8 6 6 6 7 7 7 7 7 7 7 7 7 7 7 7 7 7 7 7 7 7 7 7 7 7 7 8 7 7 6 4 0 1 3 4 6 7 8 9 9 9 8 4 1 1 1 1 2 1 3 5 8 6 6 6 5 4 2
13 12 11 9 9 8 8 8 9 9 9 9 9 9 7 8 7 8 8 8 8 9 8 8 7 7 7 7 7 6 7 7 7 7 7 8 8 7 7 7 7 6 6 6 7 7 6 3 4 6 6 7 7 7 10 8 8 8 6 2 0 2 4 2 1 2 3 4 7 7 8 9 10 10
12 11 10 9 10 11 10 10 9 9 9 9 8 8 8 7 8 8 8 8 9 9 8 8 8 7 7 6 7 7 7 6 6 7 7 6 6 6 6 6 6 5 6 7 6 6 4 3 2 4 5 6 6 9 10 8 8 4 3 3 4 4 4 3 4 4 4 5 7 11 12 11 12 12
Wind_Direction
192 197 202 214 223 230 222 198 179 79 83 139 173 171 175 172 150 165 183 202 193 203 183 178 187 159 158 161 169 161 168 164 153 153 156 154 154 158 162 168 164 160 163 163 160 153 147 141 129 108 90 84 86 81 74 71 66 60 57 52 45 36 34 38 40 42 46 47 46 45 44 42 40 37
190 189 186 200 217 204 206 209 167 181 171 156 175 189 171 166 164 167 175 197 193 178 191 178 151 163 161 161 166 169 166 167 151 159 158 159 163 170 172 172 157 151 161 165 163 160 155 148 140 133 123 118 114 107 101 95 88 82 77 71 59 46 38 42 45 46 47 50 51 48 48 46 42 39
181 193 193 186 201 196 206 199 175 186 175 169 165 175 156 177 185 164 164 156 237 167 186 200 157 154 163 166 162 161 167 166 156 160 163 166 175 174 175 165 161 164 167 167 166 165 164 161 159 159 161 158 144 136 125 111 108 104 97 88 81 68 52 50 52 50 50 52 54 52 50 48 45 42
191 194 201 197 202 191 189 190 178 170 175 163 165 171 172 170 166 160 153 168 189 195 174 167 154 157 154 161 161 162 162 166 157 165 168 174 171 171 180 175 174 173 175 173 170 172 170 173 175 174 175 170 157 147 130 121 116 117 113 102 90 81 68 62 59 56 54 54 55 55 52 48 45 43
191 195 203 209 202 138 161 160 160 166 166 167 168 169 166 163 156 153 153 158 139 63 127 147 155 156 143 158 172 158 162 164 169 165 175 172 172 175 184 189 188 182 181 176 173 174 178 183 181 179 179 165 160 140 131 133 139 140 130 112 98 87 74 68 67 64 60 57 54 54 53 50 46 43
191 177 187 206 175 154 158 162 173 169 162 161 160 171 172 168 168 171 136 150 132 163 114 113 115 152 172 154 177 168 165 172 163 166 176 190 184 182 182 185 200 199 185 178 175 178 183 185 183 184 172 147 140 135 143 152 153 153 130 104 87 73 58 55 69 71 67 63 58 50 49 51 48 45
181 175 185 190 171 161 165 176 178 159 161 160 166 169 173 171 175 178 157 129 127 155 175 157 154 170 182 178 176 182 178 170 169 166 179 186 196 199 185 191 198 206 195 182 177 179 185 185 185 182 157 150 151 152 154 160 153 159 131 104 90 76 52 29 41 69 67 63 60 53 42 42 47 45
179 182 179 189 177 174 176 170 159 159 155 163 166 170 179 180 173 179 175 162 132 154 144 191 171 181 171 194 164 162 161 164 170 181 176 183 196 201 194 198 199 203 201 193 181 181 185 189 186 182 168 166 167 162 158 163 170 176 152 115 104 95 72 37 9 40 61 52 50 48 41 28 32 40
180 182 186 182 176 180 183 173 161 160 165 168 169 175 184 188 172 165 180 172 136 143 166 170 190 165 167 134 153 163 154 157 170 165 180 188 197 205 205 202 215 205 196 203 194 185 191 193 188 184 179 177 173 167 166 172 181 185 166 128 118 119 114 101 337 336 44 56 42 39 39 24 21 29
180 184 187 177 174 184 186 189 169 167 174 174 179 183 186 186 175 171 180 171 150 156 166 159 143 166 168 146 172 178 162 154 169 190 212 212 210 203 203 216 212 198 179 190 219 209 202 199 189 185 185 186 177 173 173 179 185 192 178 151 148 156 153 149 245 267 269 63 36 22 19 15 11 17
182 186 183 176 179 188 191 185 182 175 180 182 187 192 191 183 172 182 183 172 161 159 152 170 178 172 190 167 169 182 172 172 170 174 184 216 208 203 201 207 210 192 198 216 213 213 207 195 189 194 189 188 189 178 182 184 189 196 189 172 175 178 178 196 235 248 255 246 209 27 16 8 1 3
187 188 184 181 187 191 190 187 185 180 181 183 187 194 189 178 176 184 181 174 170 160 163 171 177 192 169 161 99 114 134 152 237 214 180 194 195 203 204 204 189 200 183 206 213 219 223 218 196 197 198 178 200 198 185 184 192 201 199 190 193 192 201 220 235 248 247 235 204 197 5 351 1 4
188 188 184 187 193 195 193 191 183 188 185 181 193 198 181 180 180 182 174 180 174 174 169 182 175 167 176 179 157 162 177 189 199 188 186 203 201 186 178 215 211 185 190 208 197 199 201 186 190 192 201 194 198 212 193 191 197 206 203 200 200 206 217 226 234 245 249 249 235 233 270 277 291 337
199 190 183 190 195 196 196 193 191 188 196 199 199 192 184 184 184 183 181 183 183 175 180 182 173 181 193 186 184 183 196 193 139 142 186 206 180 132 191 247 235 193 180 189 209 223 194 181 175 180 213 212 201 210 205 203 191 204 205 203 206 214 222 229 235 243 251 260 251 242 253 280 326 335
181 183 178 181 191 189 192 193 200 194 199 207 213 207 198 194 185 184 190 196 184 183 188 182 182 190 194 196 187 190 184 179 181 186 190 191 149 174 172 204 266 211 173 191 208 231 199 166 191 203 210 202 202 204 218 204 198 203 203 204 208 217 226 232 236 242 245 253 252 247 265 303 340 359
162 159 151 159 157 162 167 161 158 177 198 208 214 217 213 211 208 196 187 188 192 190 183 184 196 191 199 188 175 183 168 186 184 188 184 183 183 182 195 195 196 213 166 179 187 231 184 181 196 207 216 201 204 207 210 205 204 204 200 202 207 217 226 232 238 245 244 244 242 234 258 305 350 12
164 157 151 150 158 164 164 151 148 141 131 126 144 140 145 190 213 215 210 200 190 183 188 187 195 200 188 177 193 188 185 172 180 171 187 196 189 194 195 204 200 213 172 155 190 221 204 175 199 222 221 194 201 208 212 208 208 208 201 199 205 214 223 231 240 248 248 243 236 237 247 274 332 39
169 168 161 160 165 178 161 156 151 142 139 144 134 119 104 108 85 125 203 209 216 199 189 184 197 203 178 191 187 191 168 164 184 178 199 194 185 187 207 200 192 172 161 173 178 223 226 189 183 225 234 182 201 205 206 204 207 212 206 198 203 211 218 230 240 246 252 250 238 227 261 267 275 74
174 174 171 169 168 169 173 179 162 148 152 142 134 125 119 91 63 61 44 218 206 197 210 203 201 190 193 197 181 177 180 185 185 186 189 188 196 186 92 81 120 142 194 174 147 208 220 152 180 231 230 185 206 203 200 202 207 211 210 201 200 208 213 228 238 244 252 257 253 228 230 273 292 38
178 175 171 168 169 171 178 190 175 163 152 146 145 148 142 121 70 63 47 272 284 276 228 215 207 197 195 188 179 178 182 192 178 137 53 74 100 134 169 196 184 187 200 181 173 200 230 184 180 232 218 166 210 197 195 204 206 210 212 205 200 204 208 223 234 241 249 258 262 254 221 237 252 301
175 177 175 170 168 172 186 186 181 168 154 152 159 159 166 168 140 149 336 43 47 43 38 246 240 222 204 195 183 179 181 177 154 133 141 181 170 156 188 212 170 211 175 199 190 168 196 190 187 226 335 195 203 203 211 206 211 210 211 211 204 201 207 218 231 237 245 254 261 261 253 232 222 217
176 183 178 169 168 177 192 185 184 176 163 164 167 166 164 165 174 208 349 25 50 87 93 77 79 191 205 194 185 182 182 166 152 155 181 190 163 187 186 198 200 213 182 199 176 160 213 165 165 147 297 121 228 202 202 204 220 218 217 218 212 208 207 217 230 236 242 249 254 259 256 245 237 202
176 187 187 178 176 181 188 182 189 182 178 167 173 175 168 178 187 203 183 151 114 90 73 42 66 60 118 165 177 190 187 174 176 181 182 152 167 181 194 184 127 179 249 223 169 188 209 140 202 140 85 327 283 201 185 184 199 205 214 214 217 221 220 225 233 239 243 244 250 252 252 246 229 231
193 189 190 191 182 183 182 184 187 188 185 168 174 166 177 179 199 193 179 199 157 148 133 122 66 92 72 113 146 151 167 187 186 181 156 168 170 174 179 186 181 189 206 210 169 178 194 151 175 177 151 145 235 270 38 199 196 206 200 211 227 232 221 236 250 246 242 241 244 246 246 243 219 217
177 186 193 192 193 186 184 184 187 188 191 175 169 182 188 196 169 147 161 177 165 139 131 117 102 85 77 91 122 149 156 165 158 154 165 171 174 164 171 184 196 218 232 211 180 156 178 171 165 148 185 87 173 120 256 217 246 210 205 197 225 235 189 225 234 249 247 240 241 241 242 238 222 203
177 180 184 192 193 191 187 184 184 187 188 180 172 195 195 147 138 161 165 144 134 132 127 122 123 114 114 121 128 141 143 143 150 143 151 157 163 178 174 174 180 198 225 220 177 173 127 158 168 156 167 109 317 106 132 252 250 235 198 208 223 235 192 226 223 245 245 234 238 230 233 235 226 214
180 172 178 190 184 187 187 182 182 182 182 176 189 182 164 162 165 151 142 143 138 140 149 146 163 175 160 157 182 181 170 189 143 143 141 138 139 155 174 192 184 183 201 169 184 178 164 169 173 163 178 156 131 25 116 147 215 52 240 226 229 234 216 201 222 236 236 226 233 236 237 234 224 217
167 168 179 187 180 181 181 180 176 173 168 176 180 172 172 167 161 151 144 151 159 151 151 174 186 201 199 184 201 211 202 183 186 174 163 151 145 135 156 154 169 177 155 167 175 178 161 141 173 189 153 149 145 154 184 279 273 194 202 253 217 231 209 201 227 240 249 231 240 223 206 235 213 193
170 176 177 176 171 177 178 177 174 179 182 174 168 172 171 163 159 161 163 163 151 157 180 192 203 209 206 200 204 199 160 122 97 100 1 307 126 116 102 109 135 160 163 163 165 171 158 154 166 158 136 142 145 184 149 197 184 214 203 171 272 245 202 205 212 227 249 229 231 227 222 225 202 175
168 169 170 169 168 163 161 157 169 184 194 195 176 162 159 165 169 169 164 165 168 184 190 191 199 214 200 205 206 153 129 145 182 176 172 173 204 142 135 110 83 1 128 162 160 155 145 144 148 152 140 149 156 165 189 161 240 242 179 188 224 311 264 203 214 228 237 242 233 227 239 205 213 164
159 155 157 162 164 157 164 165 170 170 157 151 157 168 174 172 176 176 177 175 181 186 187 197 212 219 208 129 115 157 167 194 207 184 176 176 194 178 177 161 193 203 258 343 225 166 149 144 149 144 145 170 171 190 191 177 201 221 227 216 166 192 249 195 234 230 227 235 240 253 250 218 229 188
137 130 110 117 118 119 119 122 122 151 176 181 169 180 182 183 184 187 184 180 184 187 184 195 192 193 143 180 196 173 179 201 208 180 174 177 181 179 147 151 204 203 210 250 289 289 166 159 159 172 162 163 184 214 124 179 200 209 230 217 205 248 238 238 247 257 225 170 162 235 229 203 212 238
106 113 129 139 144 152 159 165 176 179 177 203 197 185 186 182 177 179 178 187 195 187 171 185 184 198 191 205 192 181 186 207 209 183 186 187 162 159 164 190 184 176 190 205 221 221 216 210 103 157 182 184 189 165 156 200 238 212 203 229 213 240 245 223 210 220 127 135 205 201 232 258 235 243
143 159 164 174 171 169 169 178 184 187 191 192 203 212 200 187 184 190 194 194 190 181 186 188 183 193 188 205 192 191 202 213 206 199 186 193 164 155 183 189 201 202 186 195 198 204 214 222 100 58 57 254 196 180 182 188 218 211 215 222 218 237 244 207 219 192 181 179 184 211 254 273 277 268
157 164 175 182 183 178 178 183 188 188 187 197 198 204 198 199 197 194 192 196 183 182 191 193 196 188 184 197 190 194 209 213 213 191 208 186 170 185 182 188 195 192 197 198 210 215 191 191 141 115 100 353 310 288 225 201 197 218 208 231 219 227 251 217 194 195 194 217 135 187 235 282 283 262
176 176 175 180 185 181 183 192 188 187 192 195 198 195 195 208 203 196 205 188 177 184 187 193 199 197 198 200 193 195 199 206 219 212 190 187 189 199 188 196 190 197 194 199 206 196 180 172 157 168 188 214 200 265 282 232 204 187 192 234 220 215 242 229 216 182 175 200 193 178 203 238 249 256
173 181 182 184 185 182 189 187 188 193 193 194 197 196 197 202 207 205 203 171 181 182 188 185 197 201 202 197 193 201 195 186 212 208 207 206 198 189 193 206 202 197 194 216 199 182 169 170 169 170 178 189 202 229 246 311 271 243 184 219 238 216 214 182 159 198 218 187 190 190 203 195 236 231
179 181 185 187 184 187 190 186 181 187 196 198 197 197 203 206 201 206 185 176 193 188 187 189 198 197 203 187 180 192 194 199 198 195 209 201 195 203 198 201 209 201 208 212 195 193 184 171 171 185 176 188 204 227 254 300 320 250 206 203 225 230 161 157 185 216 230 203 203 210 160 190 228 222
178 179 182 183 186 186 187 188 183 191 196 193 195 197 200 200 192 187 181 199 195 194 190 194 198 196 197 197 192 177 179 185 197 208 208 206 202 205 210 206 209 211 196 218 212 202 175 187 191 186 187 192 200 210 212 214 229 258 249 216 213 199 190 185 210 215 215 222 237 228 243 244 345 51
193 184 183 183 186 187 191 184 188 192 190 195 197 198 192 189 182 183 192 198 200 198 192 199 200 194 201 194 189 184 177 179 186 193 198 204 207 206 207 202 203 196 192 214 221 221 197 209 200 202 200 207 212 210 187 187 275 274 272 264 218 205 195 166 191 178 224 220 168 164 232 8 263 313
184 189 198 193 186 186 186 187 189 188 192 191 195 197 196 185 178 186 194 196 193 188 195 202 197 195 199 194 184 172 182 192 184 185 187 191 195 196 200 190 205 195 190 221 219 223 220 218 217 212 204 178 87 82 97 229 266 260 254 266 294 222 168 173 173 169 200 169 166 178 210 222 234 335
186 192 191 192 193 191 188 187 186 187 191 187 190 192 193 185 191 187 192 199 196 197 197 195 196 197 199 191 182 175 180 186 190 193 189 181 183 196 190 177 197 197 189 220 221 223 234 239 264 147 169 133 141 164 219 219 235 250 254 281 307 359 165 181 186 199 183 154 129 124 97 7 41 303
192 197 195 194 194 190 190 189 185 186 188 186 192 191 186 187 181 177 187 196 201 197 204 203 197 194 199 194 189 185 188 197 194 196 195 195 189 186 189 196 202 199 200 222 233 243 258 284 199 181 169 173 202 187 218 225 224 235 255 257 194 351 10 51 237 219 204 202 194 179 172 173 129 242
199 199 199 189 187 189 192 189 190 189 184 186 191 186 185 181 186 191 187 192 192 200 204 200 197 196 198 195 186 189 197 204 196 194 199 200 199 198 197 198 198 208 212 222 246 254 257 236 198 169 160 203 199 188 223 228 236 228 212 224 297 116 186 262 295 308 291 270 257 246 227 200 205 216
197 193 181 173 179 185 187 194 196 189 183 184 182 187 182 180 191 192 191 189 195 199 195 200 198 202 195 178 168 192 213 206 194 200 195 193 196 203 207 206 201 198 210 211 214 256 253 238 186 163 204 223 192 200 214 213 226 180 182 185 198 203 203 186 180 220 251 284 251 229 233 232 239 251